This demonstration page uses our WeatherBlox Daily Observations layout. Learn more.

Left ArrowRight Arrow

Hourly Observations for June 22, 2017

Temp ( °F °C ) Dew Point ( °F °C ) Humidity (%) Winds ( mph kmh ) Pressure ( in mb ) Visibility ( mi km ) Precip ( " mm )
12:51 am 00:51 Clear 82 27.8 49 9.4 32 32 WSW 6 9 29.61 1003 10 16 N/A
1:51 am 01:51 Clear 78 25.6 47 8.3 33 33 WNW 3 6 29.62 1003 10 16 N/A
2:51 am 02:51 Clear 77 25 45 7.2 32 32 SE 6 9 29.61 1003 10 16 N/A
3:51 am 03:51 Clear 76 24.4 47 8.3 36 36 E 6 9 29.62 1003 10 16 N/A
4:51 am 04:51 Clear 81 27.2 46 7.8 29 29 E 9 15 29.62 1003 10 16 N/A
5:51 am 05:51 Sunny 79 26.1 45 7.2 30 30 WNW 7 11 29.64 1004 10 16 N/A
6:51 am 06:51 Sunny 83 28.3 48 8.9 30 30 W 6 9 29.66 1005 10 16 N/A
7:51 am 07:51 Sunny 85 29.4 48 8.9 28 28 W 6 9 29.68 1005 10 16 N/A
8:51 am 08:51 Sunny 97 36.1 44 6.7 16 16 WNW 13 20 29.66 1005 10 16 N/A
9:51 am 09:51 Sunny 99 37.2 43 6.1 15 15 NW 15 24 29.65 1004 10 16 N/A
10:51 am 10:51 Sunny 102 38.9 41 5 12 12 WNW 18 30 29.64 1004 10 16 N/A
11:51 am 11:51 Sunny 106 41.1 41 5 11 11 WNW 20 31 29.62 1003 10 16 N/A
12:51 pm 12:51 Sunny 108 42.2 40 4.4 10 10 W 22 35 29.59 1002 10 16 N/A
1:51 pm 13:51 Sunny 111 43.9 36 2.2 8 8 WNW 23 37 29.56 1001 10 16 N/A
2:51 pm 14:51 Sunny 111 43.9 33 0.6 7 7 NW 24 39 29.54 1000 10 16 N/A
3:51 pm 15:51 Sunny 110 43.3 36 2.2 8 8 WNW 22 35 29.52 1000 10 16 N/A
4:51 pm 16:51 Sunny 109 42.8 39 3.9 9 9 WNW 26 43 29.51 999 10 16 N/A
5:51 pm 17:51 Sunny 106 41.1 40 4.4 10 10 WNW 25 41 29.52 1000 10 16 N/A
6:51 pm 18:51 Sunny 103 39.4 40 4.4 11 11 WNW 21 33 29.54 1000 10 16 N/A
7:51 pm 19:51 Clear 99 37.2 37 2.8 12 12 WNW 20 31 29.55 1001 10 16 N/A
8:51 pm 20:51 Clear 96 35.6 36 2.2 12 12 WNW 17 28 29.57 1001 10 16 N/A
9:51 pm 21:51 Clear 94 34.4 38 3.3 14 14 NW 17 28 29.60 1002 10 16 N/A
10:51 pm 22:51 Clear 93 33.9 38 3.3 14 14 NNW 14 22 29.62 1003 10 16 N/A
11:51 pm 23:51 Clear 92 33.3 40 4.4 16 16 NNW 14 22 29.62 1003 10 16 N/A

Powered by AerisWeather